Location: Mt. Chestnut Observatory
(40.9038°N, 79.9956°W)
Time: 02:35:16
(UTC-04:00)

Daily predictions for brighter satellites

Satellite Brightness Start Highest point End
(mag) Time Altitude Azimuth Time Altitude Azimuth Time Altitude Azimuth
CZ-4 R/B 4.2 00:03:49 10° N 00:08:21 57° WNW 00:08:21 57° WNW
Cosmos 1655 Rocket 4.4 00:11:02 44° SW 00:12:40 56° W 00:18:48 10° N
ALOS 2 4.0 00:14:39 31° NE 00:14:39 31° NE 00:17:44 10° N
Cosmos 2082 3.6 00:08:51 10° NNW 00:14:36 79° ENE 00:14:40 79° ENE
Cosmos 2278 3.6 00:17:39 87° NNE 00:17:39 87° NNE 00:23:17 10° NNE
Cosmos 2151 Rocket 4.4 00:25:49 49° NNW 00:25:49 49° NNW 00:29:11 10° N
Cosmos 1371 Rocket 4.1 00:26:32 70° N 00:26:32 70° N 00:31:10 10° NNE
H-2A R/B 3.8 00:27:42 23° WNW 00:27:42 23° WNW 00:30:13 10° NW
Cosmos 1536 Rocket 4.5 00:22:22 10° N 00:25:31 47° NNW 00:25:31 47° NNW
CZ-2C R/B 2.9 00:22:37 10° NNE 00:26:55 55° NE 00:26:55 55° NE
Cosmos 1190 Rocket 4.3 00:25:32 10° NNW 00:30:12 59° NE 00:30:12 59° NE
USA 229 DEB 3.5 00:30:45 74° SE 00:30:57 75° ESE 00:37:53 10° NE
USA 229 3.5 00:30:53 74° SE 00:31:03 74° ESE 00:37:58 10° NE
Mayak 1.0 00:28:07 10° NE 00:29:34 18° NE 00:29:34 18° NE
Cosmos 1656 3.7 00:32:39 73° NNE 00:32:39 73° NNE 00:37:39 10° NNE
Cosmos 2227 Rocket 2.6 00:32:02 10° NNW 00:37:06 54° W 00:37:06 54° W
CZ-4C R/B 3.5 00:33:13 10° NNW 00:40:06 50° NE 00:42:51 36° E
Cosmos 883 Rocket 4.3 00:35:49 10° N 00:42:00 85° W 00:42:02 85° WSW
Cosmos 1624 Rocket 4.3 00:49:47 63° NW 00:49:47 63° NW 00:54:43 10° NNE
GP-B 4.3 00:45:29 10° N 00:48:24 39° NNE 00:48:24 39° NNE
Cosmos 407 Rocket 3.8 00:44:58 10° NNW 00:49:36 67° N 00:49:36 67° N
ISS -0.5 00:56:27 10° NNW 00:57:24 14° N 00:57:24 14° N
BREEZE-M DEB (TANK) 4.0 00:38:54 10° SW 00:58:53 87° SSE 01:03:27 10° ENE
Cosmos 1980 Rocket 2.7 01:01:51 51° ENE 01:01:51 51° ENE 01:06:16 10° NNE
CZ-4B R/B 4.3 01:12:23 16° NNE 01:12:23 16° NNE 01:13:24 10° NNE
Meteor 1-23 Rocket 4.4 01:05:24 10° NNW 01:10:23 63° NW 01:10:23 63° NW
Meteor 2-4 Rocket 4.4 01:06:55 10° NNW 01:11:16 44° WNW 01:11:16 44° WNW
Meteor 1-5 Rocket 4.4 01:14:00 64° NW 01:14:00 64° NW 01:19:01 10° N
Okean 1 Rocket 4.5 01:15:29 35° NNW 01:15:29 35° NNW 01:18:14 10° N
NOSS 3-1 (C) 3.5 01:20:00 63° ENE 01:20:00 63° ENE 01:25:32 10° NE
Cosmos 1954 Rocket 4.4 01:15:19 10° NNW 01:19:37 60° NNW 01:19:37 60° NNW
CZ-2C R/B 4.4 01:26:43 28° WNW 01:26:43 28° WNW 01:29:53 10° NW
Cosmos 1697 Rocket 3.3 01:26:53 47° WNW 01:27:01 47° WNW 01:32:27 10° NNE
Cosmos 1745 Rocket 4.1 01:29:34 63° E 01:29:34 63° E 01:35:24 10° NNE
Cosmos 2297 Rocket 3.8 01:26:55 10° NW 01:30:09 22° W 01:30:09 22° W
SL-08 R/B 4.4 01:32:46 82° ENE 01:32:46 82° ENE 01:38:59 10° N
Cosmos 1452 Rocket 4.1 01:47:07 50° NW 01:47:07 50° NW 01:51:46 10° N
SL-16 R/B 2.8 01:48:33 47° ENE 01:48:33 47° ENE 01:53:08 10° NNE
Cosmos 2322 Rocket 2.6 01:54:35 55° ENE 01:54:35 55° ENE 01:59:26 10° NNE
Cosmos 1850 Rocket 4.3 01:51:42 10° NNW 01:56:14 64° N 01:56:14 64° N
Cosmos 1238 Rocket 4.2 01:52:16 10° NNW 01:57:13 56° WNW 01:57:13 56° WNW
USA 234 4.4 01:52:14 10° ENE 01:56:48 29° ESE 01:56:48 29° ESE
Mayak 0.8 02:03:53 10° NNW 02:06:13 21° NW 02:06:13 21° NW
USA 81 4.3 02:04:29 10° N 02:09:11 67° NNE 02:09:11 67° NNE
Cosmos 44 Rocket 4.2 02:09:15 10° NNW 02:13:46 43° NE 02:13:48 43° NE
PSLV R/B 4.3 02:17:20 10° NNE 02:21:14 59° NNE 02:21:14 59° NNE
ATLAS 2AS CENTAUR R/B 3.8 02:21:12 35° SE 02:22:23 36° ESE 02:29:32 10° NE
NOSS 3-1 (A) 3.8 02:26:49 50° WNW 02:27:38 54° NW 02:34:04 10° NNE
CZ-4C R/B 3.5 02:21:55 10° NW 02:27:59 41° WSW 02:27:59 41° WSW
Cosmos 2263 Rocket 2.1 02:27:38 10° NNW 02:33:22 84° ENE 02:33:26 83° E
Nadezhda 1 Rocket 4.5 02:29:05 10° NNW 02:34:38 45° W 02:34:38 45° W
Cosmos 1709 Rocket 3.8 02:39:20 74° WSW 02:39:39 77° W 02:45:48 10° N
Cosmos 2360 Rocket 2.3 02:43:23 61° ESE 02:43:29 61° ESE 02:49:03 10° NNE
ARIANE 5 R/B 4.5 02:40:50 10° NE 02:44:29 19° E 02:45:52 17° ESE
Cosmos 1980 Rocket 4.0 02:43:36 19° WNW 02:45:10 21° NW 02:49:19 10° N
ATLAS 3B R/B 4.3 02:39:36 10° NNW 02:45:35 32° NE 02:51:20 10° ESE
Cosmos 2219 Rocket 4.3 02:44:12 14° ESE 02:45:43 16° E 02:49:01 10° ENE
Cosmos 1331 Rocket 3.9 02:46:22 79° N 02:46:22 79° N 02:51:17 10° NNE
Meteor 1-4 Rocket 4.4 02:48:42 28° NE 02:48:42 28° NE 02:50:46 10° NNE
Cosmos 1825 Rocket 4.2 02:48:01 10° N 02:52:01 52° ENE 02:52:01 52° ENE
Cosmos 1758 Rocket 4.4 02:51:24 10° N 02:55:30 42° ENE 02:55:36 42° E
SL-8 R/B 3.8 02:56:08 71° NE 02:56:08 71° NE 03:00:30 10° ENE
Cosmos 44 3.9 02:51:52 10° NNW 02:54:53 44° NNW 02:54:53 44° NNW
COSMOS 2428 3.6 02:59:19 34° SE 03:00:19 37° ESE 03:05:32 10° NE
Helios 1A Rocket 3.5 03:01:25 10° N 03:04:37 53° N 03:04:37 53° N
H-2A R/B 4.2 03:02:41 10° NNW 03:05:02 23° NW 03:05:02 23° NW
NOSS 2-3 (C) 3.7 03:07:39 87° SE 03:07:40 87° SE 03:13:07 10° NE
Iridium 4 Rocket 4.4 03:07:50 36° SE 03:09:43 50° E 03:15:02 10° NNE
CBERS-1 3.9 03:05:14 10° NNE 03:10:24 76° ESE 03:10:52 69° SSE
Cosmos 1486 Rocket 3.9 03:09:23 10° NNW 03:14:42 85° ENE 03:15:33 64° SSE
Cosmos 2322 3.5 03:15:50 68° SSW 03:16:37 88° WNW 03:22:19 10° NNE
Lacrosse 5 rocket 3.7 03:13:53 10° NNW 03:17:05 23° NNE 03:20:25 10° E
Cosmos 2333 Rocket 3.9 03:16:29 19° SE 03:18:41 25° ESE 03:23:12 10° NE
SL-08 R/B 3.1 03:18:56 86° SW 03:18:58 87° WSW 03:23:37 10° NNW
SL-16 R/B 2.9 03:15:50 26° SE 03:19:27 64° ENE 03:25:39 10° N
Cosmos 2184 Rocket 3.9 03:18:46 55° S 03:20:16 89° W 03:26:28 10° N
Resurs 1-4 Rocket 2.7 03:15:13 10° NNE 03:20:19 48° E 03:21:44 38° SE
Cosmos 2181 Rocket 4.5 03:19:38 10° NNW 03:25:39 43° W 03:26:26 41° WSW
UNK 4.0 03:26:56 44° SE 03:28:13 64° ENE 03:32:48 10° N
Cosmos 1354 Rocket 4.4 03:25:19 10° NNW 03:30:35 61° ENE 03:33:54 23° SE
SL-16 R/B 3.7 03:30:24 21° W 03:32:04 24° NW 03:36:37 10° N
IRS-1C 4.0 03:26:42 10° NNE 03:32:04 89° WNW 03:33:15 56° SSW
Cosmos 1953 Rocket 3.5 03:28:10 10° NNW 03:32:39 75° W 03:32:41 75° W
AQUA 3.7 03:28:26 10° N 03:33:12 73° WNW 03:33:42 66° WSW
DELTA 2 R/B (1) 3.4 03:32:19 58° WSW 03:33:22 75° S 03:38:56 10° E
Cosmos 1707 2.7 03:32:17 10° N 03:36:03 77° ENE 03:36:03 77° ENE
Cosmos 2058 Rocket 3.0 03:36:39 72° S 03:37:06 89° E 03:41:38 10° N
Cosmos 2322 Rocket 3.8 03:36:23 19° W 03:38:17 22° NW 03:42:40 10° N
Lacrosse 5 4.0 03:39:26 13° SE 03:41:05 15° ESE 03:43:48 10° E
USA 234 3.3 03:34:39 10° NE 03:41:12 75° NW 03:44:08 36° WSW
ADEOS Rocket 3.1 03:38:57 10° N 03:44:55 56° WNW 03:46:32 42° WSW
Cosmos 2333 4.2 03:44:12 46° SSW 03:46:01 81° ESE 03:51:43 10° NNE
NOSS 2-3 (D) 4.4 03:45:16 40° W 03:46:29 49° NW 03:51:51 10° NNE
Meteor 2-5 Rocket 3.7 03:41:13 10° N 03:46:56 87° E 03:49:55 30° S
Nadezhda 3 Rocket 4.1 03:42:07 10° N 03:48:24 77° E 03:52:38 22° SSE
ERBS 3.9 03:48:58 26° ESE 03:48:58 26° ESE 03:51:38 10° ENE
Cosmos 2074 Rocket 4.3 03:48:28 39° SW 03:50:17 50° WNW 03:56:24 10° N
Cosmos 1766 4.2 03:49:22 33° SE 03:50:30 43° E 03:54:16 10° NNE
Cosmos 1726 Rocket 4.0 03:50:51 45° W 03:51:02 45° WNW 03:55:19 10° N
H-2A R/B 4.1 03:15:37 10° W 03:52:21 48° SSW 03:58:29 10° SE
Cosmos 1844 4.1 03:47:20 10° NNW 03:52:55 63° ENE 03:58:32 10° SE
CZ-2D R/B 2.1 03:48:43 10° NNE 03:54:14 85° WNW 03:56:15 41° SSW
Cosmos 1607 3.9 03:50:36 10° NW 03:56:58 65° WSW 04:02:38 14° SSE
BREEZE-M DEB (TANK) 3.7 03:56:16 36° S 03:57:53 52° SE 04:11:05 10° ENE
NPP 4.4 03:55:06 10° N 04:00:01 37° WNW 04:01:29 31° WSW
IRS-1D 3.4 03:58:48 10° N 04:03:45 69° WNW 04:05:27 41° SW
Cosmos 1184 Rocket 3.2 04:00:55 10° NNW 04:03:38 49° NW 04:03:38 49° NW
Okean O Rocket 4.4 04:02:39 10° ENE 04:04:15 12° E 04:05:50 10° ESE
Spot 4 Rocket 4.1 04:00:52 10° N 04:05:59 64° WNW 04:07:50 38° SW
OAO 3 Rocket 3.7 04:06:15 38° S 04:06:15 38° S 04:10:33 10° ESE
MOS 1 Rocket 3.0 04:01:56 10° NNE 04:06:24 87° ESE 04:07:53 41° S
Cosmos 1503 Rocket 4.0 04:02:29 10° NNW 04:07:44 63° WSW 04:10:27 29° S
Meteor 2-8 Rocket 4.5 04:03:39 10° NNW 04:09:41 63° W 04:12:57 28° SSW
ATLAS 2AS CENTAUR R/B 3.4 04:08:38 27° WSW 04:13:06 57° NW 04:21:08 10° NNE
ADEOS 3.5 04:08:04 10° N 04:13:18 73° WNW 04:15:40 33° SSW
Cosmos 2154 Rocket 4.1 04:12:06 31° SSW 04:15:11 62° W 04:21:24 10° N
Cosmos 2263 Rocket 4.2 04:14:05 10° WNW 04:15:05 12° W 04:15:05 12° W
Cosmos 1544 3.4 04:15:09 34° SSE 04:16:36 65° E 04:20:19 10° NNE
In-Cosmos 22 4.2 04:13:24 10° N 04:18:45 76° E 04:24:00 10° SSE
Cosmos 1992 Rocket 4.0 04:16:51 34° SW 04:19:05 69° WNW 04:24:18 10° NNE
Cosmos 1805 3.8 04:17:43 23° SSE 04:19:54 54° E 04:23:45 10° NNE
NOSS 3-4 (A) 4.4 04:16:50 17° S 04:21:13 41° ESE 04:27:11 10° NE
NOSS 3-4 (C) 4.4 04:16:53 17° S 04:21:17 41° ESE 04:27:15 10° NE
ARIANE 5 R/B 2.9 04:18:52 10° N 04:23:51 51° WNW 04:26:12 29° SW
Cosmos 1271 Rocket 3.5 04:23:45 34° WSW 04:24:31 38° WNW 04:28:15 10° N
Cosmos 2360 Rocket 3.8 04:25:09 15° W 04:27:55 21° NW 04:32:11 10° N
Cosmos 2219 Rocket 2.2 04:25:56 28° SW 04:29:00 70° WNW 04:34:42 10° NNE
BREEZE-M DEB (TANK) 4.2 04:27:31 29° SSW 04:29:48 65° SE 04:43:29 10° ENE
Cosmos 2228 4.2 04:29:37 24° W 04:30:29 26° WNW 04:34:07 10° NNW
Meteor 1-22 Rocket 4.3 04:27:27 25° SSW 04:30:54 68° W 04:36:54 10° N
Tiangong 1 2.4 04:31:28 22° SSE 04:31:28 22° SSE 04:33:35 10° E
Cosmos 2366 rocket 4.5 04:25:56 10° S 04:31:56 60° E 04:38:04 10° NNE
Cosmos 1340 Rocket 3.3 04:30:11 10° NNW 04:33:54 40° W 04:34:59 32° SW
Cosmos 1844 Rocket 3.0 04:30:35 10° NW 04:35:57 44° WSW 04:40:43 13° S
ATLAS 3B R/B 2.6 04:30:06 10° NW 04:36:37 58° WSW 04:42:56 10° SSE
Cosmos 1980 3.7 04:33:22 21° SSW 04:37:14 83° ESE 04:42:57 10° NNE
Cosmos 2237 Rocket 2.3 04:34:00 20° SSW 04:37:58 78° ESE 04:43:37 10° NNE
Intelsat 5-1 Rocket 4.5 04:37:15 11° S 04:38:17 11° SSE 04:40:23 10° SE
Cosmos 2341 Rocket 4.2 04:36:31 22° SSW 04:40:40 55° W 04:46:55 10° N
SeaSat 1 4.3 04:37:14 10° ESE 04:41:37 33° NE 04:46:00 10° N
UNKNOWN OBJECT B 3.2 04:39:57 10° N 04:43:40 47° WNW 04:45:32 26° SW
COSMOS 2428 3.7 04:41:21 19° WSW 04:44:34 33° WNW 04:49:45 10° N
Aureole 2 Rocket 3.8 04:43:07 24° WSW 04:44:45 33° WNW 04:48:24 10° N
BREEZE-M DEB (TANK) 2.4 04:43:17 25° W 04:44:52 72° NNW 04:50:12 10° ENE
SEDSat Delta rocket 4.1 04:44:26 21° SSW 04:45:00 22° S 04:48:10 10° SE
ADEOS II 2.6 04:47:06 10° NNE 04:52:18 58° E 04:57:28 10° S
Cosmos 1809 Rocket 4.4 04:49:13 13° SSW 04:54:46 73° W 05:00:57 10° N
MOS 1-B 4.4 04:49:55 10° NNE 04:55:45 82° ESE 05:01:34 10° SSW
Lacrosse 5 rocket 1.4 04:52:34 10° NW 04:56:29 53° SW 05:00:39 10° SSE
Cosmos 2218 Rocket 4.0 04:50:22 10° S 04:56:37 79° W 05:03:02 10° N
Cosmos 389 Rocket 4.0 04:56:54 18° W 04:58:05 21° WNW 05:00:55 10° NNW
Resurs 1-4 Rocket 3.6 04:55:50 10° NNW 04:59:48 22° WNW 05:02:49 14° WSW
Cosmos 482 Debris 3.8 04:59:12 26° S 04:59:52 35° SE 05:02:10 10° ENE
BREEZE-M DEB (TANK) 4.5 04:55:52 10° NW 05:00:31 72° NNE 05:19:35 10° ESE
Meteor 2-21 4.5 04:55:56 12° SSW 05:01:38 67° W 05:07:46 10° N
Meteor 2-14 Rocket 4.4 04:56:04 10° S 05:02:08 86° W 05:08:16 10° N
Cosmos 2333 Rocket 2.7 04:58:30 17° SW 05:02:37 47° WNW 05:08:05 10° NNE
SL-16 R/B 3.8 05:00:56 16° WSW 05:03:30 20° W 05:07:59 10° NW
DELTA 2 R/B(2) 3.2 05:04:21 37° SSW 05:04:37 42° S 05:06:23 10° E
USA 161 1.6 05:03:28 11° S 05:06:15 51° W 05:09:03 10° NNW
Cosmos 1758 3.5 05:03:48 15° SSW 05:07:02 53° W 05:11:02 10° N
USA 238 DEB 4.0 05:01:34 10° NW 05:08:15 45° WSW 05:14:57 10° S
USA 238 4.0 05:01:40 10° NW 05:08:21 46° WSW 05:15:05 10° S
Cosmos 1356 Rocket 3.8 05:04:55 10° NNW 05:08:40 39° W 05:12:23 10° SSW
Abrixas rocket 2.6 05:07:34 16° WSW 05:10:02 59° NNW 05:13:20 10° NE
Cosmos 2278 Rocket 2.2 05:05:16 10° NNW 05:10:50 59° WSW 05:16:23 10° S
Cosmos 1470 2.8 05:07:02 10° S 05:10:56 80° E 05:14:52 10° N
Cosmos 1953 2.5 05:07:48 12° SSW 05:11:22 56° W 05:15:19 10° N
Cosmos 968 Rocket 3.9 05:12:51 10° NNW 05:17:40 41° WSW 05:22:26 10° S
Centaur D AC-29 3.4 05:13:54 12° SW 05:18:15 27° SSE 05:34:45 10° ESE
PSLV R/B 3.8 05:14:42 10° N 05:18:40 80° WNW 05:22:41 10° SSW
DELTA 2 R/B (1) 3.6 05:14:11 10° W 05:19:45 71° S 05:25:17 10° ESE
NOSS 3-2 (A) 4.0 05:15:46 10° NW 05:23:19 70° WSW 05:31:27 10° SSE
Cosmos 1733 3.2 05:19:30 10° SSW 05:23:20 66° W 05:27:13 10° N
Lacrosse 5 1.9 05:18:39 12° SW 05:23:24 88° NW 05:28:32 10° NE
Cosmos 1076 Rocket 3.5 05:20:25 10° NNW 05:24:38 63° W 05:28:50 10° S
ERBS 3.7 05:22:15 10° W 05:25:16 29° NW 05:28:21 10° NNE
Cosmos 1674 3.0 05:21:43 10° NNW 05:25:24 45° W 05:29:05 10° SSW
SL-16 R/B 2.3 05:21:42 10° SSW 05:27:22 83° ESE 05:33:04 10° NNE
CZ-2D R/B 4.2 05:31:19 10° NW 05:33:25 12° WNW 05:35:30 10° W
COSMOS 2455 4.5 05:28:03 10° NNW 05:33:43 40° NE 05:39:20 10° ESE
CZ-4B R/B 3.1 05:33:25 10° N 05:37:16 56° WNW 05:41:19 10° SSW
RESURS DK-1 2.5 05:33:33 10° SSW 05:37:41 83° ESE 05:41:53 10° NNE
Cosmos 1818 4.1 05:32:38 10° SW 05:37:51 48° NW 05:43:08 10° NNE
Atlas Centaur 2 3.3 05:37:22 10° SSW 05:40:14 18° SSE 05:43:29 10° ESE
Landsat 4 3.7 05:36:44 10° S 05:40:26 64° WSW 05:44:08 10° NNW
Okean 3 Rocket 4.4 05:36:32 10° NNW 05:40:28 32° W 05:44:27 10° SSW
Okean O Rocket 1.7 05:36:35 10° N 05:41:01 64° WNW 05:45:25 10° SSW
CZ-2C R/B 4.0 05:37:34 10° SSE 05:42:03 72° ENE 05:46:30 10° N
Cosmos 1766 Rocket 3.7 05:40:35 10° NNW 05:45:00 59° W 05:49:21 10° S
NOSS 3-2 (C) 4.1 05:38:05 10° NW 05:45:37 65° WSW 05:53:42 10° SSE
